Notices

What's New in latest Release from April 7th, 2021:

- Updated Glossary, including Speed of Maximum Gust, and Total Hourly Precipitation

- Updated national and regional climate services offices contacts and prices information

- Addition of station inventory lists for 1981-2010, 1971-2000, and 1961-1990 Normals.

If you haven't already, please take our survey and provide feedback about our website: https://eccc.sondage-survey.ca/f/LanguageSelection.aspx?s=442ca660-fcf1-47c0-95a9-59707d6fd709

Hourly Data Report for April 01, 2017

KENORA A
ONTARIO

49°47'18.000" N
94°21'47.000" W
409.70 m
6034076
71850
YQK

Download Data

Hourly Data (April 2017)
Hourly Data Report for April 1, 2017
TIME
LST
Temp Definition
°C
Dew Point Definition
°C
Rel Hum Definition
%
Precip. Amount Definition
mm

Wind Dir Definition
10's deg

Wind Spd Definition
km/h
Visibility Definition
km
Stn Press Definition
kPa
Hmdx Definition


Wind Chill Definition


Weather Definition


00:00 4.2 0.5 77   33 8 24.1 97.21     Cloudy
01:00 3.5 0.4 80   36 6 24.1 97.24     LegendNANA
02:00 3.2 0.6 83   34 5 24.1 97.25     LegendNANA
03:00 2.8 0.7 86   1 8 24.1 97.25     Cloudy
04:00 2.4 0.8 89   22 3 24.1 97.25     LegendNANA
05:00 2.2 0.6 89   1 7 24.1 97.26     LegendNANA
06:00 1.8 0.3 90   35 11 24.1 97.30     Cloudy
07:00 1.8 0.3 90   36 11 24.1 97.30     LegendNANA
08:00 2.0 0.2 88   35 3 24.1 97.31     LegendNANA
09:00 2.7 0.3 84   36 2 24.1 97.31     Cloudy
10:00 4.5 1.2 79   0 1 24.1 97.30     LegendNANA
11:00 5.2 0.0 69   1 8 24.1 97.28     LegendNANA
12:00 5.9 0.5 68   8 4 24.1 97.23     Mostly Cloudy
13:00 6.2 0.5 67   25 13 24.1 97.22     LegendNANA
14:00 6.4 0.1 64   27 4 24.1 97.16     LegendNANA
15:00 7.1 -0.1 60   26 10 24.1 97.11     Mostly Cloudy
16:00 7.3 -0.2 59   24 16 24.1 97.08     LegendNANA
17:00 7.1 -1.6 54   25 11 24.1 97.04     LegendNANA
18:00 6.0 -1.2 60   23 13 24.1 96.98     Mostly Cloudy
19:00 4.0 -1.4 68   20 9 24.1 96.97     LegendNANA
20:00 3.2 -1.7 70   19 8 24.1 96.95     LegendNANA
21:00 2.6 -1.8 73   17 10 24.1 96.90     Mainly Clear
22:00 2.0 -1.8 76   16 9 24.1 96.84     LegendNANA
23:00 1.9 -2.1 75   17 9 24.1 96.77     LegendNANA

Notes on Data Quality.

Legend

  • E = Estimated
  • M = Missing
  • NA = Not Available*
  • [empty] = Indicates an unobserved value
Date modified: